Wetterdaten: Dienstag, 22.12.2015
Datum Zeit Temp. A. Feuchte A. Luftdruck Regen Wind Richtung Richtung Sonnenschein ET UV Solar Taupunkt Windchill Windben Empfang
22.12.2015 00:00 5,9 C 92 % 1030,5 hPa 0,0 l/m 7,2 km/h (2 Bft) SW 225 0 min 0,000 mm 0,0 UV-I 0 W/m 4,7 C 5,2 C 12,9 km/h (3 Bft) 100,00 %
22.12.2015 00:05 5,9 C 92 % 1030,3 hPa 0,0 l/m 6,7 km/h (2 Bft) S-SW 196 0 min 0,000 mm 0,0 UV-I 0 W/m 4,7 C 5,7 C 9,7 km/h (2 Bft) 99,10 %
22.12.2015 00:10 6,2 C 92 % 1030,4 hPa 0,0 l/m 9,1 km/h (2 Bft) SW 229 0 min 0,000 mm 0,0 UV-I 0 W/m 5,0 C 4,0 C 14,5 km/h (3 Bft) 100,00 %
22.12.2015 00:15 6,0 C 91 % 1030,4 hPa 0,0 l/m 7,5 km/h (2 Bft) SW 219 0 min 0,000 mm 0,0 UV-I 0 W/m 4,6 C 5,1 C 16,1 km/h (3 Bft) 99,13 %
22.12.2015 00:20 6,2 C 91 % 1030,4 hPa 0,0 l/m 8,0 km/h (2 Bft) W-SW 255 0 min 0,000 mm 0,0 UV-I 0 W/m 4,8 C 4,9 C 16,1 km/h (3 Bft) 98,31 %
22.12.2015 00:25 6,2 C 91 % 1030,4 hPa 0,0 l/m 6,8 km/h (2 Bft) S-SW 205 0 min 0,000 mm 0,0 UV-I 0 W/m 4,8 C 5,9 C 11,3 km/h (2 Bft) 100,00 %
22.12.2015 00:30 6,3 C 91 % 1030,3 hPa 0,0 l/m 7,2 km/h (2 Bft) SW 232 0 min 0,000 mm 0,0 UV-I 0 W/m 4,9 C 5,6 C 11,3 km/h (2 Bft) 98,39 %
22.12.2015 00:35 6,4 C 91 % 1030,3 hPa 0,0 l/m 8,5 km/h (2 Bft) W-SW 244 0 min 0,000 mm 0,0 UV-I 0 W/m 5,0 C 4,7 C 16,1 km/h (3 Bft) 99,13 %
22.12.2015 00:40 6,4 C 90 % 1030,3 hPa 0,0 l/m 9,8 km/h (2 Bft) SW 234 0 min 0,000 mm 0,0 UV-I 0 W/m 4,9 C 3,8 C 17,7 km/h (3 Bft) 100,00 %
22.12.2015 00:45 6,3 C 90 % 1030,2 hPa 0,0 l/m 11,3 km/h (2 Bft) SW 235 0 min 0,000 mm 0,0 UV-I 0 W/m 4,8 C 2,7 C 19,3 km/h (3 Bft) 96,23 %
22.12.2015 00:50 6,3 C 90 % 1030,3 hPa 0,0 l/m 13,6 km/h (3 Bft) SW 218 0 min 0,000 mm 0,0 UV-I 0 W/m 4,8 C 1,4 C 20,9 km/h (4 Bft) 94,78 %
22.12.2015 00:55 6,3 C 90 % 1030,3 hPa 0,0 l/m 13,3 km/h (3 Bft) W-SW 244 0 min 0,000 mm 0,0 UV-I 0 W/m 4,8 C 1,5 C 20,9 km/h (4 Bft) 96,80 %
22.12.2015 01:00 6,6 C 90 % 1030,3 hPa 0,0 l/m 11,2 km/h (2 Bft) W-SW 257 0 min 0,000 mm 0,0 UV-I 0 W/m 5,1 C 3,1 C 17,7 km/h (3 Bft) 97,25 %
22.12.2015 01:06 6,7 C 89 % 1030,2 hPa 0,0 l/m 10,9 km/h (2 Bft) S-SW 212 0 min 0,000 mm 0,0 UV-I 0 W/m 5,0 C 3,4 C 17,7 km/h (3 Bft) 96,71 %
22.12.2015 01:10 6,9 C 88 % 1030,2 hPa 0,0 l/m 10,9 km/h (2 Bft) SW 221 0 min 0,000 mm 0,0 UV-I 0 W/m 5,1 C 3,6 C 19,3 km/h (3 Bft) 95,60 %
22.12.2015 01:15 7,1 C 88 % 1030,2 hPa 0,0 l/m 13,3 km/h (3 Bft) SW 227 0 min 0,000 mm 0,0 UV-I 0 W/m 5,2 C 2,5 C 22,5 km/h (4 Bft) 95,73 %
22.12.2015 01:20 7,1 C 87 % 1030,1 hPa 0,0 l/m 13,3 km/h (3 Bft) S-SO 158 0 min 0,000 mm 0,0 UV-I 0 W/m 5,1 C 2,5 C 22,5 km/h (4 Bft) 98,26 %
22.12.2015 01:25 7,1 C 87 % 1030,1 hPa 0,0 l/m 13,4 km/h (3 Bft) SW 223 0 min 0,000 mm 0,0 UV-I 0 W/m 5,1 C 2,4 C 20,9 km/h (4 Bft) 99,13 %
22.12.2015 01:30 7,1 C 87 % 1030,0 hPa 0,0 l/m 13,1 km/h (3 Bft) W-SW 242 0 min 0,000 mm 0,0 UV-I 0 W/m 5,1 C 2,6 C 22,5 km/h (4 Bft) 99,11 %
22.12.2015 01:35 7,0 C 87 % 1030,1 hPa 0,0 l/m 14,7 km/h (3 Bft) SW 225 0 min 0,000 mm 0,0 UV-I 0 W/m 5,0 C 1,6 C 22,5 km/h (4 Bft) 99,22 %
22.12.2015 01:40 6,9 C 87 % 1030,1 hPa 0,0 l/m 11,4 km/h (2 Bft) W-SW 254 0 min 0,000 mm 0,0 UV-I 0 W/m 4,9 C 3,3 C 20,9 km/h (4 Bft) 99,11 %
22.12.2015 01:45 6,8 C 87 % 1030,1 hPa 0,0 l/m 11,3 km/h (2 Bft) W-SW 237 0 min 0,000 mm 0,0 UV-I 0 W/m 4,8 C 3,2 C 16,1 km/h (3 Bft) 99,15 %
22.12.2015 01:50 6,6 C 88 % 1030,0 hPa 0,0 l/m 11,4 km/h (2 Bft) S-SW 204 0 min 0,000 mm 0,0 UV-I 0 W/m 4,8 C 3,0 C 16,1 km/h (3 Bft) 100,00 %
22.12.2015 01:55 6,7 C 87 % 1030,0 hPa 0,0 l/m 10,5 km/h (2 Bft) SW 229 0 min 0,000 mm 0,0 UV-I 0 W/m 4,7 C 3,6 C 17,7 km/h (3 Bft) 100,00 %
22.12.2015 02:00 6,8 C 86 % 1029,9 hPa 0,0 l/m 10,5 km/h (2 Bft) SW 236 0 min 0,025 mm 0,0 UV-I 0 W/m 4,6 C 3,7 C 16,1 km/h (3 Bft) 98,33 %
22.12.2015 02:05 7,0 C 84 % 1030,0 hPa 0,0 l/m 10,7 km/h (2 Bft) SW 232 0 min 0,000 mm 0,0 UV-I 0 W/m 4,5 C 3,8 C 16,1 km/h (3 Bft) 100,00 %
22.12.2015 02:10 6,9 C 84 % 1030,1 hPa 0,0 l/m 8,6 km/h (2 Bft) W-SW 248 0 min 0,000 mm 0,0 UV-I 0 W/m 4,4 C 5,1 C 14,5 km/h (3 Bft) 100,00 %
22.12.2015 02:15 6,9 C 84 % 1030,1 hPa 0,0 l/m 10,4 km/h (2 Bft) W-SW 246 0 min 0,000 mm 0,0 UV-I 0 W/m 4,4 C 3,9 C 16,1 km/h (3 Bft) 100,00 %
22.12.2015 02:20 7,1 C 83 % 1030,2 hPa 0,0 l/m 10,5 km/h (2 Bft) SW 234 0 min 0,000 mm 0,0 UV-I 0 W/m 4,4 C 4,1 C 20,9 km/h (4 Bft) 99,11 %
22.12.2015 02:25 7,2 C 83 % 1030,3 hPa 0,0 l/m 10,1 km/h (2 Bft) S-SW 205 0 min 0,000 mm 0,0 UV-I 0 W/m 4,5 C 4,4 C 16,1 km/h (3 Bft) 100,00 %
22.12.2015 02:30 7,1 C 84 % 1030,5 hPa 0,0 l/m 9,1 km/h (2 Bft) S 172 0 min 0,000 mm 0,0 UV-I 0 W/m 4,6 C 5,0 C 16,1 km/h (3 Bft) 100,00 %
22.12.2015 02:35 7,2 C 84 % 1030,5 hPa 0,0 l/m 10,1 km/h (2 Bft) S-SW 201 0 min 0,000 mm 0,0 UV-I 0 W/m 4,7 C 4,4 C 16,1 km/h (3 Bft) 99,19 %
22.12.2015 02:40 7,1 C 84 % 1030,6 hPa 0,0 l/m 9,4 km/h (2 Bft) S-SW 209 0 min 0,000 mm 0,0 UV-I 0 W/m 4,6 C 4,8 C 14,5 km/h (3 Bft) 99,13 %
22.12.2015 02:45 6,7 C 85 % 1030,7 hPa 0,0 l/m 10,4 km/h (2 Bft) SW 229 0 min 0,000 mm 0,0 UV-I 0 W/m 4,4 C 3,7 C 14,5 km/h (3 Bft) 99,13 %
22.12.2015 02:50 6,5 C 86 % 1030,6 hPa 0,0 l/m 12,0 km/h (2 Bft) SW 217 0 min 0,000 mm 0,0 UV-I 0 W/m 4,3 C 2,5 C 17,7 km/h (3 Bft) 100,00 %
22.12.2015 02:55 6,5 C 87 % 1030,6 hPa 0,0 l/m 10,9 km/h (2 Bft) W-SW 238 0 min 0,000 mm 0,0 UV-I 0 W/m 4,5 C 3,1 C 17,7 km/h (3 Bft) 98,17 %
22.12.2015 03:00 6,6 C 86 % 1030,7 hPa 0,0 l/m 11,1 km/h (2 Bft) W-SW 244 0 min 0,026 mm 0,0 UV-I 0 W/m 4,4 C 3,1 C 16,1 km/h (3 Bft) 98,17 %
22.12.2015 03:05 6,5 C 86 % 1030,8 hPa 0,0 l/m 10,7 km/h (2 Bft) SW 234 0 min 0,000 mm 0,0 UV-I 0 W/m 4,3 C 3,3 C 16,1 km/h (3 Bft) 97,67 %
22.12.2015 03:10 6,5 C 87 % 1030,8 hPa 0,0 l/m 10,3 km/h (2 Bft) SW 232 0 min 0,000 mm 0,0 UV-I 0 W/m 4,5 C 3,5 C 17,7 km/h (3 Bft) 96,69 %
22.12.2015 03:15 6,7 C 86 % 1031,1 hPa 0,0 l/m 10,8 km/h (2 Bft) SW 234 0 min 0,000 mm 0,0 UV-I 0 W/m 4,5 C 3,4 C 17,7 km/h (3 Bft) 95,73 %
22.12.2015 03:20 6,9 C 86 % 1031,2 hPa 0,0 l/m 13,8 km/h (3 Bft) W-SW 252 0 min 0,000 mm 0,0 UV-I 0 W/m 4,7 C 2,0 C 19,3 km/h (3 Bft) 97,25 %
22.12.2015 03:25 7,2 C 85 % 1031,2 hPa 0,0 l/m 15,1 km/h (3 Bft) W-SW 248 0 min 0,000 mm 0,0 UV-I 0 W/m 4,9 C 1,7 C 20,9 km/h (4 Bft) 96,69 %
22.12.2015 03:30 7,4 C 84 % 1031,2 hPa 0,0 l/m 14,5 km/h (3 Bft) W 263 0 min 0,000 mm 0,0 UV-I 0 W/m 4,9 C 2,2 C 22,5 km/h (4 Bft) 97,25 %
22.12.2015 03:35 7,6 C 84 % 1031,2 hPa 0,0 l/m 11,5 km/h (2 Bft) W-SW 242 0 min 0,000 mm 0,0 UV-I 0 W/m 5,1 C 4,0 C 17,7 km/h (3 Bft) 96,97 %
22.12.2015 03:40 7,5 C 84 % 1031,2 hPa 0,0 l/m 8,6 km/h (2 Bft) SW 223 0 min 0,000 mm 0,0 UV-I 0 W/m 5,0 C 5,8 C 14,5 km/h (3 Bft) 99,11 %
22.12.2015 03:45 7,3 C 84 % 1031,4 hPa 0,0 l/m 5,7 km/h (1 Bft) W-SW 251 0 min 0,000 mm 0,0 UV-I 0 W/m 4,8 C 7,3 C 8,0 km/h (2 Bft) 99,15 %
22.12.2015 03:50 7,4 C 84 % 1031,4 hPa 0,0 l/m 5,4 km/h (1 Bft) SW 231 0 min 0,000 mm 0,0 UV-I 0 W/m 4,9 C 7,4 C 8,0 km/h (2 Bft) 97,32 %
22.12.2015 03:55 7,4 C 85 % 1031,3 hPa 0,0 l/m 7,4 km/h (2 Bft) SW 229 0 min 0,000 mm 0,0 UV-I 0 W/m 5,0 C 6,6 C 12,9 km/h (3 Bft) 100,00 %
22.12.2015 04:00 7,4 C 85 % 1031,1 hPa 0,0 l/m 7,5 km/h (2 Bft) S-SW 207 0 min 0,025 mm 0,0 UV-I 0 W/m 5,0 C 6,5 C 17,7 km/h (3 Bft) 100,00 %
22.12.2015 04:05 7,4 C 85 % 1031,1 hPa 0,0 l/m 10,2 km/h (2 Bft) S 191 0 min 0,000 mm 0,0 UV-I 0 W/m 5,0 C 4,6 C 14,5 km/h (3 Bft) 99,12 %
22.12.2015 04:10 7,4 C 85 % 1031,2 hPa 0,0 l/m 9,7 km/h (2 Bft) SW 217 0 min 0,000 mm 0,0 UV-I 0 W/m 5,0 C 4,9 C 17,7 km/h (3 Bft) 100,00 %
22.12.2015 04:15 7,3 C 86 % 1031,2 hPa 0,0 l/m 12,8 km/h (3 Bft) SW 224 0 min 0,000 mm 0,0 UV-I 0 W/m 5,1 C 3,0 C 17,7 km/h (3 Bft) 99,15 %
22.12.2015 04:20 7,2 C 86 % 1031,2 hPa 0,0 l/m 9,9 km/h (2 Bft) W 263 0 min 0,000 mm 0,0 UV-I 0 W/m 5,0 C 4,6 C 16,1 km/h (3 Bft) 99,15 %
22.12.2015 04:25 7,2 C 86 % 1031,3 hPa 0,0 l/m 11,0 km/h (2 Bft) S-SW 211 0 min 0,000 mm 0,0 UV-I 0 W/m 5,0 C 3,9 C 17,7 km/h (3 Bft) 100,00 %
22.12.2015 04:30 7,3 C 86 % 1031,1 hPa 0,0 l/m 10,9 km/h (2 Bft) SW 232 0 min 0,000 mm 0,0 UV-I 0 W/m 5,1 C 4,0 C 17,7 km/h (3 Bft) 99,32 %
22.12.2015 04:35 7,4 C 86 % 1031,1 hPa 0,0 l/m 11,2 km/h (2 Bft) S-SW 209 0 min 0,000 mm 0,0 UV-I 0 W/m 5,2 C 4,0 C 17,7 km/h (3 Bft) 98,21 %
22.12.2015 04:40 7,7 C 86 % 1031,1 hPa 0,0 l/m 10,9 km/h (2 Bft) S-SW 194 0 min 0,000 mm 0,0 UV-I 0 W/m 5,5 C 4,5 C 19,3 km/h (3 Bft) 99,07 %
22.12.2015 04:45 7,9 C 85 % 1031,2 hPa 0,0 l/m 9,4 km/h (2 Bft) SW 219 0 min 0,000 mm 0,0 UV-I 0 W/m 5,5 C 5,7 C 17,7 km/h (3 Bft) 99,21 %
22.12.2015 04:50 7,9 C 85 % 1031,1 hPa 0,0 l/m 11,1 km/h (2 Bft) W-SW 242 0 min 0,000 mm 0,0 UV-I 0 W/m 5,5 C 4,6 C 17,7 km/h (3 Bft) 99,11 %
22.12.2015 04:55 8,1 C 84 % 1031,0 hPa 0,0 l/m 11,3 km/h (2 Bft) SW 214 0 min 0,000 mm 0,0 UV-I 0 W/m 5,6 C 4,7 C 17,7 km/h (3 Bft) 99,19 %
22.12.2015 05:00 8,2 C 84 % 1030,9 hPa 0,0 l/m 10,5 km/h (2 Bft) S 186 0 min 0,026 mm 0,0 UV-I 0 W/m 5,7 C 5,3 C 19,3 km/h (3 Bft) 99,13 %
22.12.2015 05:05 8,3 C 83 % 1030,8 hPa 0,0 l/m 9,6 km/h (2 Bft) W-SW 237 0 min 0,000 mm 0,0 UV-I 0 W/m 5,6 C 6,0 C 17,7 km/h (3 Bft) 99,03 %
22.12.2015 05:10 8,4 C 82 % 1030,8 hPa 0,0 l/m 10,7 km/h (2 Bft) SW 229 0 min 0,000 mm 0,0 UV-I 0 W/m 5,5 C 5,4 C 19,3 km/h (3 Bft) 98,37 %
22.12.2015 05:15 8,6 C 82 % 1030,7 hPa 0,0 l/m 11,5 km/h (2 Bft) SW 215 0 min 0,000 mm 0,0 UV-I 0 W/m 5,7 C 5,2 C 19,3 km/h (3 Bft) 97,58 %
22.12.2015 05:20 8,5 C 82 % 1030,9 hPa 0,0 l/m 8,6 km/h (2 Bft) W-SW 248 0 min 0,000 mm 0,0 UV-I 0 W/m 5,6 C 6,9 C 14,5 km/h (3 Bft) 97,44 %
22.12.2015 05:25 8,4 C 82 % 1030,9 hPa 0,0 l/m 10,2 km/h (2 Bft) S-SW 213 0 min 0,000 mm 0,0 UV-I 0 W/m 5,5 C 5,7 C 17,7 km/h (3 Bft) 97,46 %
22.12.2015 05:30 8,2 C 82 % 1030,9 hPa 0,0 l/m 11,2 km/h (2 Bft) S-SO 167 0 min 0,000 mm 0,0 UV-I 0 W/m 5,3 C 4,9 C 19,3 km/h (3 Bft) 97,32 %
22.12.2015 05:35 8,2 C 83 % 1031,0 hPa 0,0 l/m 11,5 km/h (2 Bft) SW 216 0 min 0,000 mm 0,0 UV-I 0 W/m 5,5 C 4,7 C 16,1 km/h (3 Bft) 96,75 %
22.12.2015 05:40 8,1 C 83 % 1031,0 hPa 0,0 l/m 11,2 km/h (2 Bft) SW 216 0 min 0,000 mm 0,0 UV-I 0 W/m 5,4 C 4,8 C 16,1 km/h (3 Bft) 97,25 %
22.12.2015 05:45 7,9 C 84 % 1031,0 hPa 0,0 l/m 13,9 km/h (3 Bft) SW 225 0 min 0,000 mm 0,0 UV-I 0 W/m 5,4 C 3,1 C 19,3 km/h (3 Bft) 97,69 %
22.12.2015 05:50 7,8 C 85 % 1031,0 hPa 0,0 l/m 10,7 km/h (2 Bft) W-SW 242 0 min 0,000 mm 0,0 UV-I 0 W/m 5,4 C 4,7 C 17,7 km/h (3 Bft) 100,00 %
22.12.2015 05:55 7,9 C 85 % 1031,0 hPa 0,0 l/m 12,4 km/h (3 Bft) W-SW 250 0 min 0,000 mm 0,0 UV-I 0 W/m 5,5 C 3,9 C 16,1 km/h (3 Bft) 99,15 %
22.12.2015 06:00 8,0 C 84 % 1030,9 hPa 0,0 l/m 13,2 km/h (3 Bft) W-SW 252 0 min 0,025 mm 0,0 UV-I 0 W/m 5,5 C 3,6 C 20,9 km/h (4 Bft) 99,10 %
22.12.2015 06:05 8,1 C 84 % 1030,8 hPa 0,0 l/m 13,4 km/h (3 Bft) W-SW 254 0 min 0,000 mm 0,0 UV-I 0 W/m 5,6 C 3,6 C 20,9 km/h (4 Bft) 98,35 %
22.12.2015 06:10 8,2 C 83 % 1030,8 hPa 0,0 l/m 13,7 km/h (3 Bft) SW 225 0 min 0,000 mm 0,0 UV-I 0 W/m 5,5 C 3,6 C 19,3 km/h (3 Bft) 100,00 %
22.12.2015 06:15 8,2 C 83 % 1030,9 hPa 0,0 l/m 13,6 km/h (3 Bft) W-SW 240 0 min 0,000 mm 0,0 UV-I 0 W/m 5,5 C 3,6 C 19,3 km/h (3 Bft) 99,15 %
22.12.2015 06:20 8,3 C 83 % 1031,0 hPa 0,0 l/m 11,7 km/h (2 Bft) W-SW 242 0 min 0,000 mm 0,0 UV-I 0 W/m 5,6 C 4,7 C 17,7 km/h (3 Bft) 99,11 %
22.12.2015 06:25 8,3 C 83 % 1030,9 hPa 0,0 l/m 8,3 km/h (2 Bft) W-SW 242 0 min 0,000 mm 0,0 UV-I 0 W/m 5,6 C 6,9 C 16,1 km/h (3 Bft) 100,00 %
22.12.2015 06:30 8,3 C 83 % 1030,9 hPa 0,0 l/m 7,0 km/h (2 Bft) S 186 0 min 0,000 mm 0,0 UV-I 0 W/m 5,6 C 7,8 C 11,3 km/h (2 Bft) 99,13 %
22.12.2015 06:35 8,2 C 84 % 1031,0 hPa 0,0 l/m 5,8 km/h (2 Bft) SW 231 0 min 0,000 mm 0,0 UV-I 0 W/m 5,7 C 8,2 C 8,0 km/h (2 Bft) 99,21 %
22.12.2015 06:40 8,1 C 84 % 1030,7 hPa 0,0 l/m 6,3 km/h (2 Bft) S-SW 199 0 min 0,000 mm 0,0 UV-I 0 W/m 5,6 C 8,1 C 9,7 km/h (2 Bft) 100,00 %
22.12.2015 06:45 8,1 C 84 % 1030,6 hPa 0,0 l/m 8,0 km/h (2 Bft) SW 236 0 min 0,000 mm 0,0 UV-I 0 W/m 5,6 C 6,9 C 12,9 km/h (3 Bft) 99,15 %
22.12.2015 06:50 7,9 C 85 % 1030,6 hPa 0,0 l/m 9,8 km/h (2 Bft) SW 236 0 min 0,000 mm 0,0 UV-I 0 W/m 5,5 C 5,4 C 14,5 km/h (3 Bft) 100,00 %
22.12.2015 06:55 7,7 C 86 % 1030,6 hPa 0,0 l/m 8,4 km/h (2 Bft) W-SW 254 0 min 0,000 mm 0,0 UV-I 0 W/m 5,5 C 6,1 C 12,9 km/h (3 Bft) 100,00 %
22.12.2015 07:00 7,8 C 85 % 1030,6 hPa 0,0 l/m 8,8 km/h (2 Bft) SW 218 0 min 0,025 mm 0,0 UV-I 0 W/m 5,4 C 6,0 C 14,5 km/h (3 Bft) 98,39 %
22.12.2015 07:05 7,9 C 85 % 1030,6 hPa 0,0 l/m 8,9 km/h (2 Bft) SW 222 0 min 0,000 mm 0,0 UV-I 0 W/m 5,5 C 6,0 C 12,9 km/h (3 Bft) 100,00 %
22.12.2015 07:10 7,9 C 85 % 1030,6 hPa 0,0 l/m 10,3 km/h (2 Bft) W-SW 242 0 min 0,000 mm 0,0 UV-I 0 W/m 5,5 C 5,1 C 16,1 km/h (3 Bft) 100,00 %
22.12.2015 07:15 8,0 C 85 % 1030,7 hPa 0,0 l/m 11,0 km/h (2 Bft) W-SW 244 0 min 0,000 mm 0,0 UV-I 0 W/m 5,6 C 4,8 C 17,7 km/h (3 Bft) 99,23 %
22.12.2015 07:20 8,1 C 84 % 1030,8 hPa 0,0 l/m 9,6 km/h (2 Bft) S 173 0 min 0,000 mm 0,0 UV-I 0 W/m 5,6 C 5,8 C 17,7 km/h (3 Bft) 96,75 %
22.12.2015 07:25 8,1 C 84 % 1030,8 hPa 0,0 l/m 7,4 km/h (2 Bft) SW 232 0 min 0,000 mm 0,0 UV-I 0 W/m 5,6 C 7,3 C 14,5 km/h (3 Bft) 98,31 %
22.12.2015 07:30 7,9 C 85 % 1030,7 hPa 0,0 l/m 8,6 km/h (2 Bft) SW 214 0 min 0,000 mm 0,0 UV-I 0 W/m 5,5 C 6,2 C 12,9 km/h (3 Bft) 97,44 %
22.12.2015 07:35 8,1 C 84 % 1030,8 hPa 0,0 l/m 8,2 km/h (2 Bft) W-SW 237 0 min 0,000 mm 0,0 UV-I 0 W/m 5,6 C 6,7 C 14,5 km/h (3 Bft) 97,46 %
22.12.2015 07:40 8,1 C 84 % 1030,8 hPa 0,0 l/m 8,4 km/h (2 Bft) SW 232 0 min 0,000 mm 0,0 UV-I 0 W/m 5,6 C 6,6 C 14,5 km/h (3 Bft) 97,94 %
22.12.2015 07:45 8,1 C 83 % 1030,8 hPa 0,0 l/m 9,0 km/h (2 Bft) W-SW 240 0 min 0,000 mm 0,0 UV-I 0 W/m 5,4 C 6,1 C 19,3 km/h (3 Bft) 96,90 %
22.12.2015 07:50 8,1 C 83 % 1030,9 hPa 0,0 l/m 7,5 km/h (2 Bft) W-SW 245 0 min 0,000 mm 0,0 UV-I 1 W/m 5,4 C 7,2 C 12,9 km/h (3 Bft) 96,43 %
22.12.2015 07:55 8,1 C 83 % 1031,0 hPa 0,0 l/m 6,5 km/h (2 Bft) S-SW 212 0 min 0,000 mm 0,0 UV-I 5 W/m 5,4 C 8,0 C 12,9 km/h (3 Bft) 97,64 %
22.12.2015 08:00 8,1 C 84 % 1031,0 hPa 0,0 l/m 6,9 km/h (2 Bft) SW 220 0 min 0,026 mm 0,0 UV-I 6 W/m 5,6 C 7,7 C 12,9 km/h (3 Bft) 97,37 %
22.12.2015 08:05 8,0 C 84 % 1030,9 hPa 0,0 l/m 7,1 km/h (2 Bft) SW 219 0 min 0,000 mm 0,0 UV-I 7 W/m 5,5 C 7,4 C 12,9 km/h (3 Bft) 99,15 %
22.12.2015 08:10 8,1 C 83 % 1030,9 hPa 0,0 l/m 7,0 km/h (2 Bft) S-SW 198 0 min 0,000 mm 0,0 UV-I 9 W/m 5,4 C 7,6 C 11,3 km/h (2 Bft) 99,11 %
22.12.2015 08:15 8,1 C 83 % 1030,9 hPa 0,0 l/m 5,4 km/h (1 Bft) S-SW 201 0 min 0,000 mm 0,0 UV-I 11 W/m 5,4 C 8,1 C 11,3 km/h (2 Bft) 100,00 %
22.12.2015 08:20 7,9 C 83 % 1030,9 hPa 0,0 l/m 5,9 km/h (2 Bft) S 179 0 min 0,000 mm 0,0 UV-I 12 W/m 5,2 C 7,9 C 11,3 km/h (2 Bft) 100,00 %
22.12.2015 08:25 7,9 C 83 % 1031,1 hPa 0,0 l/m 6,0 km/h (2 Bft) SW 226 0 min 0,000 mm 0,0 UV-I 15 W/m 5,2 C 7,9 C 11,3 km/h (2 Bft) 98,25 %
22.12.2015 08:30 7,8 C 83 % 1031,2 hPa 0,0 l/m 6,1 km/h (2 Bft) SW 229 0 min 0,000 mm 0,0 UV-I 22 W/m 5,1 C 7,8 C 9,7 km/h (2 Bft) 99,21 %
22.12.2015 08:35 7,8 C 84 % 1031,1 hPa 0,0 l/m 5,7 km/h (1 Bft) S-SW 209 0 min 0,000 mm 0,0 UV-I 36 W/m 5,3 C 7,8 C 8,0 km/h (2 Bft) 100,00 %
22.12.2015 08:40 8,1 C 83 % 1031,0 hPa 0,0 l/m 6,9 km/h (2 Bft) SW 220 0 min 0,000 mm 0,0 UV-I 39 W/m 5,4 C 7,7 C 9,7 km/h (2 Bft) 100,00 %
22.12.2015 08:45 8,5 C 82 % 1031,1 hPa 0,0 l/m 7,5 km/h (2 Bft) W-SW 239 0 min 0,000 mm 0,0 UV-I 53 W/m 5,6 C 7,6 C 12,9 km/h (3 Bft) 100,00 %
22.12.2015 08:50 8,4 C 82 % 1031,1 hPa 0,0 l/m 6,3 km/h (2 Bft) SW 233 5 min 0,000 mm 0,0 UV-I 67 W/m 5,5 C 8,4 C 11,3 km/h (2 Bft) 100,00 %
22.12.2015 08:55 8,4 C 82 % 1031,2 hPa 0,0 l/m 5,3 km/h (1 Bft) SW 232 0 min 0,000 mm 0,0 UV-I 53 W/m 5,5 C 8,4 C 9,7 km/h (2 Bft) 97,44 %
22.12.2015 09:00 8,4 C 81 % 1031,3 hPa 0,0 l/m 3,8 km/h (1 Bft) SW 234 0 min 0,025 mm 0,0 UV-I 56 W/m 5,3 C 8,4 C 6,4 km/h (2 Bft) 97,46 %
22.12.2015 09:05 8,5 C 81 % 1031,3 hPa 0,0 l/m 2,2 km/h (1 Bft) SW 234 0 min 0,000 mm 0,0 UV-I 68 W/m 5,4 C 8,5 C 4,8 km/h (1 Bft) 99,17 %
22.12.2015 09:10 8,6 C 81 % 1031,2 hPa 0,0 l/m 2,1 km/h (1 Bft) SW 234 0 min 0,000 mm 0,0 UV-I 65 W/m 5,5 C 8,6 C 6,4 km/h (2 Bft) 100,00 %
22.12.2015 09:15 8,6 C 81 % 1031,3 hPa 0,0 l/m 3,0 km/h (1 Bft) SW 236 0 min 0,000 mm 0,0 UV-I 60 W/m 5,5 C 8,6 C 8,0 km/h (2 Bft) 99,15 %
22.12.2015 09:20 8,7 C 81 % 1031,4 hPa 0,0 l/m 4,7 km/h (1 Bft) SW 227 0 min 0,000 mm 0,0 UV-I 65 W/m 5,6 C 8,7 C 8,0 km/h (2 Bft) 98,33 %
22.12.2015 09:25 8,7 C 81 % 1031,3 hPa 0,0 l/m 6,1 km/h (2 Bft) S 190 0 min 0,000 mm 0,0 UV-I 74 W/m 5,6 C 8,7 C 11,3 km/h (2 Bft) 99,17 %
22.12.2015 09:30 8,8 C 81 % 1031,3 hPa 0,0 l/m 7,9 km/h (2 Bft) SW 226 0 min 0,000 mm 0,0 UV-I 48 W/m 5,7 C 7,7 C 14,5 km/h (3 Bft) 97,25 %
22.12.2015 09:35 8,6 C 82 % 1031,4 hPa 0,0 l/m 10,2 km/h (2 Bft) S-SW 206 0 min 0,000 mm 0,0 UV-I 84 W/m 5,7 C 5,9 C 16,1 km/h (3 Bft) 97,44 %
22.12.2015 09:40 8,8 C 81 % 1031,4 hPa 0,0 l/m 10,8 km/h (2 Bft) W-SW 238 5 min 0,000 mm 0,0 UV-I 134 W/m 5,7 C 5,8 C 19,3 km/h (3 Bft) 96,69 %
22.12.2015 09:45 9,0 C 81 % 1031,4 hPa 0,0 l/m 12,0 km/h (2 Bft) S-SW 205 5 min 0,000 mm 0,0 UV-I 147 W/m 5,9 C 5,4 C 19,3 km/h (3 Bft) 97,17 %
22.12.2015 09:50 9,4 C 79 % 1031,3 hPa 0,0 l/m 10,7 km/h (2 Bft) SW 235 5 min 0,000 mm 0,0 UV-I 156 W/m 5,9 C 6,5 C 16,1 km/h (3 Bft) 97,62 %
22.12.2015 09:55 9,7 C 78 % 1031,5 hPa 0,0 l/m 12,0 km/h (2 Bft) SW 235 5 min 0,000 mm 0,0 UV-I 165 W/m 6,1 C 6,2 C 19,3 km/h (3 Bft) 95,97 %
22.12.2015 10:00 9,9 C 78 % 1031,6 hPa 0,0 l/m 12,5 km/h (3 Bft) SW 227 5 min 0,051 mm 0,0 UV-I 173 W/m 6,2 C 6,1 C 20,9 km/h (4 Bft) 97,37 %
22.12.2015 10:05 10,2 C 77 % 1031,6 hPa 0,0 l/m 15,8 km/h (3 Bft) W-SW 254 5 min 0,000 mm 0,0 UV-I 181 W/m 6,4 C 5,1 C 25,7 km/h (4 Bft) 99,08 %
22.12.2015 10:10 10,4 C 76 % 1031,7 hPa 0,0 l/m 14,7 km/h (3 Bft) SW 233 5 min 0,000 mm 0,0 UV-I 175 W/m 6,4 C 5,7 C 24,1 km/h (4 Bft) 99,15 %
22.12.2015 10:15 10,7 C 75 % 1031,7 hPa 0,0 l/m 13,4 km/h (3 Bft) W-SW 245 5 min 0,000 mm 0,0 UV-I 187 W/m 6,5 C 6,7 C 20,9 km/h (4 Bft) 99,21 %
22.12.2015 10:20 10,8 C 75 % 1031,6 hPa 0,0 l/m 11,0 km/h (2 Bft) SW 223 5 min 0,000 mm 0,5 UV-I 205 W/m 6,5 C 7,9 C 17,7 km/h (3 Bft) 100,00 %
22.12.2015 10:25 10,9 C 75 % 1031,6 hPa 0,0 l/m 11,9 km/h (2 Bft) SW 217 5 min 0,000 mm 0,5 UV-I 213 W/m 6,6 C 7,6 C 19,3 km/h (3 Bft) 100,00 %
22.12.2015 10:30 11,1 C 74 % 1031,6 hPa 0,0 l/m 12,0 km/h (2 Bft) S-SW 209 5 min 0,000 mm 0,5 UV-I 221 W/m 6,6 C 7,8 C 17,7 km/h (3 Bft) 100,00 %
22.12.2015 10:35 11,3 C 74 % 1031,6 hPa 0,0 l/m 12,3 km/h (3 Bft) S-SW 198 5 min 0,000 mm 0,5 UV-I 229 W/m 6,8 C 7,9 C 17,7 km/h (3 Bft) 99,13 %
22.12.2015 10:40 11,5 C 74 % 1031,7 hPa 0,0 l/m 10,9 km/h (2 Bft) W-SW 254 5 min 0,000 mm 0,6 UV-I 239 W/m 7,0 C 8,8 C 16,1 km/h (3 Bft) 99,17 %
22.12.2015 10:45 11,7 C 72 % 1031,6 hPa 0,0 l/m 7,6 km/h (2 Bft) SW 218 5 min 0,000 mm 0,6 UV-I 266 W/m 6,8 C 10,9 C 12,9 km/h (3 Bft) 99,11 %
22.12.2015 10:50 11,8 C 71 % 1031,5 hPa 0,0 l/m 8,2 km/h (2 Bft) SW 219 5 min 0,000 mm 0,6 UV-I 186 W/m 6,7 C 10,6 C 14,5 km/h (3 Bft) 100,00 %
22.12.2015 10:55 11,8 C 72 % 1031,6 hPa 0,0 l/m 7,3 km/h (2 Bft) W 267 5 min 0,000 mm 0,6 UV-I 209 W/m 6,9 C 11,2 C 14,5 km/h (3 Bft) 99,15 %
22.12.2015 11:00 11,9 C 70 % 1031,7 hPa 0,0 l/m 8,2 km/h (2 Bft) W-SW 239 5 min 0,127 mm 0,6 UV-I 271 W/m 6,6 C 10,7 C 14,5 km/h (3 Bft) 100,00 %
22.12.2015 11:05 12,1 C 70 % 1031,6 hPa 0,0 l/m 7,4 km/h (2 Bft) W-SW 245 5 min 0,000 mm 0,7 UV-I 277 W/m 6,8 C 11,4 C 12,9 km/h (3 Bft) 100,00 %
22.12.2015 11:10 12,2 C 68 % 1031,6 hPa 0,0 l/m 8,3 km/h (2 Bft) SW 220 5 min 0,000 mm 0,7 UV-I 275 W/m 6,5 C 11,0 C 14,5 km/h (3 Bft) 100,00 %
22.12.2015 11:15 12,5 C 69 % 1031,5 hPa 0,0 l/m 8,3 km/h (2 Bft) SW 231 5 min 0,000 mm 0,7 UV-I 275 W/m 7,0 C 11,3 C 12,9 km/h (3 Bft) 98,35 %
22.12.2015 11:20 12,5 C 68 % 1031,5 hPa 0,0 l/m 6,4 km/h (2 Bft) SW 214 5 min 0,000 mm 0,7 UV-I 277 W/m 6,8 C 12,5 C 12,9 km/h (3 Bft) 98,10 %
22.12.2015 11:25 12,6 C 69 % 1031,5 hPa 0,0 l/m 7,0 km/h (2 Bft) SW 223 5 min 0,000 mm 0,7 UV-I 276 W/m 7,1 C 12,2 C 14,5 km/h (3 Bft) 97,52 %
22.12.2015 11:30 12,6 C 67 % 1031,5 hPa 0,0 l/m 7,4 km/h (2 Bft) SW 229 5 min 0,000 mm 0,7 UV-I 282 W/m 6,6 C 12,0 C 12,9 km/h (3 Bft) 97,46 %
22.12.2015 11:35 12,8 C 69 % 1031,4 hPa 0,0 l/m 6,3 km/h (2 Bft) S-SW 204 5 min 0,000 mm 0,7 UV-I 298 W/m 7,3 C 12,8 C 9,7 km/h (2 Bft) 95,12 %
22.12.2015 11:40 12,9 C 67 % 1031,2 hPa 0,0 l/m 8,2 km/h (2 Bft) SW 226 5 min 0,000 mm 0,8 UV-I 329 W/m 6,9 C 11,8 C 16,1 km/h (3 Bft) 97,32 %
22.12.2015 11:45 13,1 C 64 % 1031,2 hPa 0,0 l/m 6,7 km/h (2 Bft) SW 229 5 min 0,000 mm 0,8 UV-I 354 W/m 6,4 C 12,9 C 14,5 km/h (3 Bft) 98,28 %
22.12.2015 11:50 13,2 C 64 % 1031,2 hPa 0,0 l/m 7,7 km/h (2 Bft) SW 232 5 min 0,000 mm 0,8 UV-I 340 W/m 6,5 C 12,4 C 14,5 km/h (3 Bft) 100,00 %
22.12.2015 11:55 13,2 C 64 % 1031,1 hPa 0,0 l/m 7,6 km/h (2 Bft) SW 225 5 min 0,000 mm 0,7 UV-I 269 W/m 6,5 C 12,5 C 16,1 km/h (3 Bft) 100,00 %
22.12.2015 12:00 13,1 C 64 % 1031,2 hPa 0,0 l/m 8,6 km/h (2 Bft) W-SW 244 5 min 0,178 mm 0,7 UV-I 226 W/m 6,4 C 11,8 C 14,5 km/h (3 Bft) 100,00 %
22.12.2015 12:05 13,1 C 65 % 1031,0 hPa 0,0 l/m 8,5 km/h (2 Bft) W-SW 239 5 min 0,000 mm 0,8 UV-I 286 W/m 6,7 C 11,8 C 14,5 km/h (3 Bft) 99,19 %
22.12.2015 12:10 13,1 C 66 % 1031,0 hPa 0,0 l/m 8,1 km/h (2 Bft) S-SW 209 5 min 0,000 mm 0,8 UV-I 293 W/m 6,9 C 12,0 C 14,5 km/h (3 Bft) 100,00 %
22.12.2015 12:15 13,2 C 65 % 1030,9 hPa 0,0 l/m 9,5 km/h (2 Bft) SW 227 5 min 0,000 mm 0,8 UV-I 290 W/m 6,8 C 11,4 C 14,5 km/h (3 Bft) 99,17 %
22.12.2015 12:20 13,4 C 66 % 1031,0 hPa 0,0 l/m 7,6 km/h (2 Bft) W-SW 243 5 min 0,000 mm 0,8 UV-I 290 W/m 7,2 C 12,7 C 14,5 km/h (3 Bft) 100,00 %
22.12.2015 12:25 13,6 C 63 % 1030,8 hPa 0,0 l/m 8,0 km/h (2 Bft) SW 219 5 min 0,000 mm 0,8 UV-I 286 W/m 6,7 C 12,6 C 14,5 km/h (3 Bft) 99,17 %
22.12.2015 12:30 13,6 C 63 % 1030,7 hPa 0,0 l/m 10,0 km/h (2 Bft) W 259 5 min 0,000 mm 0,8 UV-I 283 W/m 6,7 C 11,6 C 17,7 km/h (3 Bft) 100,00 %
22.12.2015 12:35 13,7 C 62 % 1030,6 hPa 0,0 l/m 12,2 km/h (2 Bft) SW 219 5 min 0,000 mm 0,7 UV-I 281 W/m 6,6 C 10,7 C 19,3 km/h (3 Bft) 99,08 %
22.12.2015 12:40 13,7 C 60 % 1030,5 hPa 0,0 l/m 12,9 km/h (3 Bft) SW 233 5 min 0,000 mm 0,7 UV-I 279 W/m 6,1 C 10,4 C 22,5 km/h (4 Bft) 99,12 %
22.12.2015 12:45 13,7 C 61 % 1030,4 hPa 0,0 l/m 12,2 km/h (2 Bft) W-SW 255 5 min 0,000 mm 0,7 UV-I 276 W/m 6,3 C 10,7 C 19,3 km/h (3 Bft) 100,00 %
22.12.2015 12:50 13,7 C 61 % 1030,4 hPa 0,0 l/m 14,4 km/h (3 Bft) W-SW 250 5 min 0,000 mm 0,7 UV-I 273 W/m 6,3 C 9,8 C 22,5 km/h (4 Bft) 99,15 %
22.12.2015 12:55 13,8 C 62 % 1030,4 hPa 0,0 l/m 11,9 km/h (2 Bft) W-SW 248 5 min 0,000 mm 0,7 UV-I 271 W/m 6,6 C 10,9 C 19,3 km/h (3 Bft) 96,67 %
22.12.2015 13:00 13,8 C 61 % 1030,4 hPa 0,0 l/m 12,7 km/h (3 Bft) W 271 5 min 0,178 mm 0,7 UV-I 267 W/m 6,4 C 10,6 C 19,3 km/h (3 Bft) 96,61 %
22.12.2015 13:05 13,9 C 60 % 1030,3 hPa 0,0 l/m 12,4 km/h (3 Bft) SW 219 5 min 0,000 mm 0,7 UV-I 264 W/m 6,3 C 10,8 C 19,3 km/h (3 Bft) 96,43 %
22.12.2015 13:10 13,9 C 60 % 1030,1 hPa 0,0 l/m 13,3 km/h (3 Bft) W 263 5 min 0,000 mm 0,6 UV-I 256 W/m 6,3 C 10,5 C 22,5 km/h (4 Bft) 96,49 %
22.12.2015 13:15 14,1 C 60 % 1030,1 hPa 0,0 l/m 12,6 km/h (3 Bft) W-SW 257 5 min 0,000 mm 0,6 UV-I 256 W/m 6,5 C 11,0 C 19,3 km/h (3 Bft) 97,52 %
22.12.2015 13:20 14,1 C 59 % 1030,0 hPa 0,0 l/m 12,5 km/h (3 Bft) S-SW 211 5 min 0,000 mm 0,6 UV-I 251 W/m 6,2 C 11,0 C 19,3 km/h (3 Bft) 99,19 %
22.12.2015 13:25 14,1 C 58 % 1029,9 hPa 0,0 l/m 11,4 km/h (2 Bft) W-SW 238 5 min 0,000 mm 0,6 UV-I 245 W/m 6,0 C 11,5 C 24,1 km/h (4 Bft) 98,31 %
22.12.2015 13:30 14,1 C 59 % 1029,8 hPa 0,0 l/m 10,7 km/h (2 Bft) W-SW 244 5 min 0,000 mm 0,6 UV-I 240 W/m 6,2 C 11,8 C 17,7 km/h (3 Bft) 99,11 %
22.12.2015 13:35 14,1 C 61 % 1029,8 hPa 0,0 l/m 11,6 km/h (2 Bft) W-SW 248 5 min 0,000 mm 0,5 UV-I 240 W/m 6,7 C 11,4 C 19,3 km/h (3 Bft) 100,00 %
22.12.2015 13:40 14,1 C 60 % 1029,8 hPa 0,0 l/m 10,0 km/h (2 Bft) W-SW 240 5 min 0,000 mm 0,5 UV-I 234 W/m 6,5 C 12,1 C 16,1 km/h (3 Bft) 99,21 %
22.12.2015 13:45 14,1 C 61 % 1029,6 hPa 0,0 l/m 9,3 km/h (2 Bft) W-SW 242 5 min 0,000 mm 0,4 UV-I 220 W/m 6,7 C 12,5 C 16,1 km/h (3 Bft) 100,00 %
22.12.2015 13:50 13,9 C 60 % 1029,5 hPa 0,0 l/m 10,1 km/h (2 Bft) SW 219 5 min 0,000 mm 0,5 UV-I 209 W/m 6,3 C 11,9 C 20,9 km/h (4 Bft) 100,00 %
22.12.2015 13:55 13,8 C 60 % 1029,5 hPa 0,0 l/m 11,2 km/h (2 Bft) SW 226 5 min 0,000 mm 0,2 UV-I 204 W/m 6,2 C 11,2 C 19,3 km/h (3 Bft) 100,00 %
22.12.2015 14:00 13,8 C 62 % 1029,5 hPa 0,0 l/m 12,6 km/h (3 Bft) SW 219 5 min 0,177 mm 0,0 UV-I 198 W/m 6,6 C 10,6 C 20,9 km/h (4 Bft) 100,00 %
22.12.2015 14:05 13,9 C 62 % 1029,4 hPa 0,0 l/m 8,4 km/h (2 Bft) W-SW 251 5 min 0,000 mm 0,0 UV-I 192 W/m 6,7 C 12,7 C 16,1 km/h (3 Bft) 100,00 %
22.12.2015 14:10 14,1 C 61 % 1029,4 hPa 0,0 l/m 9,0 km/h (2 Bft) W-SW 244 5 min 0,000 mm 0,0 UV-I 184 W/m 6,7 C 12,6 C 17,7 km/h (3 Bft) 99,13 %
22.12.2015 14:15 14,0 C 62 % 1029,5 hPa 0,0 l/m 9,2 km/h (2 Bft) W 264 5 min 0,000 mm 0,0 UV-I 176 W/m 6,8 C 12,4 C 14,5 km/h (3 Bft) 100,00 %
22.12.2015 14:20 14,1 C 61 % 1029,4 hPa 0,0 l/m 6,8 km/h (2 Bft) SW 222 5 min 0,000 mm 0,0 UV-I 167 W/m 6,7 C 13,9 C 12,9 km/h (3 Bft) 99,08 %
22.12.2015 14:25 14,1 C 61 % 1029,3 hPa 0,0 l/m 6,3 km/h (2 Bft) SW 233 5 min 0,000 mm 0,0 UV-I 164 W/m 6,7 C 14,1 C 11,3 km/h (2 Bft) 99,17 %
22.12.2015 14:30 13,9 C 63 % 1029,3 hPa 0,0 l/m 5,8 km/h (2 Bft) W-SW 257 5 min 0,000 mm 0,0 UV-I 125 W/m 7,0 C 13,9 C 9,7 km/h (2 Bft) 98,37 %
22.12.2015 14:35 13,6 C 61 % 1029,3 hPa 0,0 l/m 5,9 km/h (2 Bft) SW 217 0 min 0,000 mm 0,0 UV-I 71 W/m 6,2 C 13,6 C 11,3 km/h (2 Bft) 97,32 %
22.12.2015 14:40 13,4 C 62 % 1029,2 hPa 0,0 l/m 6,7 km/h (2 Bft) SW 228 0 min 0,000 mm 0,0 UV-I 62 W/m 6,3 C 13,2 C 11,3 km/h (2 Bft) 96,67 %
22.12.2015 14:45 13,3 C 62 % 1029,1 hPa 0,0 l/m 5,6 km/h (1 Bft) S-SW 209 0 min 0,000 mm 0,0 UV-I 71 W/m 6,2 C 13,3 C 8,0 km/h (2 Bft) 96,52 %
22.12.2015 14:50 13,4 C 62 % 1029,2 hPa 0,0 l/m 4,9 km/h (1 Bft) W-SW 252 5 min 0,000 mm 0,0 UV-I 99 W/m 6,3 C 13,4 C 8,0 km/h (2 Bft) 97,39 %
22.12.2015 14:55 13,3 C 63 % 1029,2 hPa 0,0 l/m 5,2 km/h (1 Bft) SW 230 0 min 0,000 mm 0,0 UV-I 80 W/m 6,4 C 13,3 C 8,0 km/h (2 Bft) 95,83 %
22.12.2015 15:00 13,1 C 63 % 1029,1 hPa 0,0 l/m 4,7 km/h (1 Bft) SW 225 0 min 0,102 mm 0,0 UV-I 54 W/m 6,2 C 13,1 C 8,0 km/h (2 Bft) 98,35 %
22.12.2015 15:05 13,0 C 63 % 1029,1 hPa 0,0 l/m 3,6 km/h (1 Bft) SW 223 0 min 0,000 mm 0,0 UV-I 48 W/m 6,1 C 13,0 C 4,8 km/h (1 Bft) 97,39 %
22.12.2015 15:10 12,8 C 64 % 1029,1 hPa 0,0 l/m 3,7 km/h (1 Bft) SW 217 0 min 0,000 mm 0,0 UV-I 40 W/m 6,2 C 12,8 C 6,4 km/h (2 Bft) 98,20 %
22.12.2015 15:15 12,7 C 64 % 1029,2 hPa 0,0 l/m 3,3 km/h (1 Bft) SW 217 0 min 0,000 mm 0,0 UV-I 38 W/m 6,1 C 12,7 C 4,8 km/h (1 Bft) 100,00 %
22.12.2015 15:20 12,7 C 64 % 1029,1 hPa 0,0 l/m 2,3 km/h (1 Bft) SW 217 0 min 0,000 mm 0,0 UV-I 36 W/m 6,1 C 12,7 C 3,2 km/h (1 Bft) 98,33 %
22.12.2015 15:25 12,5 C 66 % 1029,1 hPa 0,0 l/m 1,6 km/h (1 Bft) SW 217 0 min 0,000 mm 0,0 UV-I 33 W/m 6,3 C 12,5 C 3,2 km/h (1 Bft) 99,11 %
22.12.2015 15:30 12,4 C 67 % 1029,1 hPa 0,0 l/m 0,4 km/h (0 Bft) SW 217 0 min 0,000 mm 0,0 UV-I 33 W/m 6,4 C 12,4 C 1,6 km/h (1 Bft) 99,11 %
22.12.2015 15:35 12,4 C 66 % 1029,1 hPa 0,0 l/m 0,0 km/h (0 Bft) SW 217 0 min 0,000 mm 0,0 UV-I 28 W/m 6,2 C 12,4 C 0,0 km/h (0 Bft) 98,37 %
22.12.2015 15:40 11,9 C 69 % 1029,1 hPa 0,0 l/m 0,0 km/h (0 Bft) SW 217 0 min 0,000 mm 0,0 UV-I 20 W/m 6,4 C 11,9 C 0,0 km/h (0 Bft) 98,35 %
22.12.2015 15:45 10,7 C 77 % 1029,1 hPa 0,0 l/m 0,2 km/h (0 Bft) SW 217 0 min 0,000 mm 0,0 UV-I 18 W/m 6,8 C 10,7 C 3,2 km/h (1 Bft) 100,00 %
22.12.2015 15:50 10,6 C 74 % 1029,0 hPa 0,0 l/m 0,4 km/h (0 Bft) SW 217 0 min 0,000 mm 0,0 UV-I 19 W/m 6,2 C 10,6 C 3,2 km/h (1 Bft) 99,10 %
22.12.2015 15:55 10,7 C 75 % 1028,9 hPa 0,0 l/m 0,6 km/h (0 Bft) SW 217 5 min 0,000 mm 0,0 UV-I 19 W/m 6,5 C 10,7 C 3,2 km/h (1 Bft) 100,00 %
22.12.2015 16:00 10,4 C 76 % 1028,9 hPa 0,0 l/m 1,6 km/h (1 Bft) SW 217 5 min 0,025 mm 0,0 UV-I 14 W/m 6,4 C 10,4 C 4,8 km/h (1 Bft) 100,00 %
22.12.2015 16:05 10,6 C 75 % 1028,9 hPa 0,0 l/m 2,2 km/h (1 Bft) SW 217 0 min 0,000 mm 0,0 UV-I 10 W/m 6,4 C 10,6 C 3,2 km/h (1 Bft) 98,48 %
22.12.2015 16:10 10,7 C 74 % 1028,8 hPa 0,0 l/m 1,5 km/h (1 Bft) SW 217 0 min 0,000 mm 0,0 UV-I 6 W/m 6,3 C 10,7 C 3,2 km/h (1 Bft) 99,17 %
22.12.2015 16:15 10,8 C 72 % 1028,8 hPa 0,0 l/m 0,7 km/h (0 Bft) S 180 0 min 0,000 mm 0,0 UV-I 2 W/m 6,0 C 10,8 C 3,2 km/h (1 Bft) 100,00 %
22.12.2015 16:20 10,7 C 73 % 1028,8 hPa 0,0 l/m 1,2 km/h (1 Bft) S 178 0 min 0,000 mm 0,0 UV-I 0 W/m 6,1 C 10,7 C 3,2 km/h (1 Bft) 100,00 %
22.12.2015 16:25 9,9 C 75 % 1028,8 hPa 0,0 l/m 1,5 km/h (1 Bft) S 177 0 min 0,000 mm 0,0 UV-I 0 W/m 5,7 C 9,9 C 3,2 km/h (1 Bft) 96,52 %
22.12.2015 16:30 9,4 C 78 % 1028,8 hPa 0,0 l/m 1,3 km/h (1 Bft) S 177 0 min 0,000 mm 0,0 UV-I 0 W/m 5,8 C 9,4 C 3,2 km/h (1 Bft) 94,02 %
22.12.2015 16:35 9,4 C 77 % 1028,8 hPa 0,0 l/m 2,5 km/h (1 Bft) O-NO 60 0 min 0,000 mm 0,0 UV-I 0 W/m 5,6 C 9,4 C 6,4 km/h (2 Bft) 95,76 %
22.12.2015 16:40 9,7 C 77 % 1028,9 hPa 0,0 l/m 5,2 km/h (1 Bft) O-NO 65 0 min 0,000 mm 0,0 UV-I 0 W/m 5,9 C 9,7 C 8,0 km/h (2 Bft) 97,25 %
22.12.2015 16:45 8,7 C 80 % 1029,0 hPa 0,0 l/m 4,0 km/h (1 Bft) O-SO 103 0 min 0,000 mm 0,0 UV-I 0 W/m 5,4 C 8,7 C 6,4 km/h (2 Bft) 97,67 %
22.12.2015 16:50 8,8 C 80 % 1029,0 hPa 0,0 l/m 4,0 km/h (1 Bft) O-NO 71 0 min 0,000 mm 0,0 UV-I 0 W/m 5,5 C 8,8 C 6,4 km/h (2 Bft) 96,49 %
22.12.2015 16:55 9,3 C 78 % 1029,0 hPa 0,0 l/m 2,4 km/h (1 Bft) N 355 0 min 0,000 mm 0,0 UV-I 0 W/m 5,7 C 9,3 C 4,8 km/h (1 Bft) 96,58 %
22.12.2015 17:00 8,4 C 82 % 1028,9 hPa 0,0 l/m 2,9 km/h (1 Bft) NO 44 0 min 0,000 mm 0,0 UV-I 0 W/m 5,5 C 8,4 C 4,8 km/h (1 Bft) 98,21 %
22.12.2015 17:05 8,7 C 80 % 1028,9 hPa 0,0 l/m 1,6 km/h (1 Bft) NO 45 0 min 0,000 mm 0,0 UV-I 0 W/m 5,4 C 8,7 C 4,8 km/h (1 Bft) 97,37 %
22.12.2015 17:10 8,2 C 83 % 1028,9 hPa 0,0 l/m 1,6 km/h (1 Bft) NO 45 0 min 0,000 mm 0,0 UV-I 0 W/m 5,5 C 8,2 C 3,2 km/h (1 Bft) 97,37 %
22.12.2015 17:15 7,4 C 85 % 1028,8 hPa 0,0 l/m 1,6 km/h (1 Bft) NO 45 0 min 0,000 mm 0,0 UV-I 0 W/m 5,0 C 7,4 C 3,2 km/h (1 Bft) 95,61 %
22.12.2015 17:20 7,1 C 88 % 1028,9 hPa 0,0 l/m 1,6 km/h (1 Bft) O-NO 67 0 min 0,000 mm 0,0 UV-I 0 W/m 5,2 C 7,1 C 4,8 km/h (1 Bft) 97,37 %
22.12.2015 17:25 7,4 C 87 % 1028,9 hPa 0,0 l/m 0,0 km/h (0 Bft) O-NO 67 0 min 0,000 mm 0,0 UV-I 0 W/m 5,4 C 7,4 C 3,2 km/h (1 Bft) 97,37 %
22.12.2015 17:30 7,9 C 84 % 1028,9 hPa 0,0 l/m 0,0 km/h (0 Bft) O-NO 67 0 min 0,000 mm 0,0 UV-I 0 W/m 5,4 C 7,9 C 3,2 km/h (1 Bft) 97,37 %
22.12.2015 17:35 7,8 C 85 % 1028,9 hPa 0,0 l/m 0,0 km/h (0 Bft) O-NO 67 0 min 0,000 mm 0,0 UV-I 0 W/m 5,4 C 7,8 C 1,6 km/h (1 Bft) 97,37 %
22.12.2015 17:40 7,5 C 85 % 1028,8 hPa 0,0 l/m 1,6 km/h (1 Bft) SO 135 0 min 0,000 mm 0,0 UV-I 0 W/m 5,1 C 7,5 C 4,8 km/h (1 Bft) 97,37 %
22.12.2015 17:45 7,1 C 86 % 1028,8 hPa 0,0 l/m 0,0 km/h (0 Bft) SO 135 0 min 0,000 mm 0,0 UV-I 0 W/m 4,9 C 7,1 C 3,2 km/h (1 Bft) 98,25 %
22.12.2015 17:50 7,1 C 88 % 1028,7 hPa 0,0 l/m 1,6 km/h (1 Bft) SO 135 0 min 0,000 mm 0,0 UV-I 0 W/m 5,2 C 7,1 C 6,4 km/h (2 Bft) 100,00 %
22.12.2015 17:55 7,3 C 85 % 1028,6 hPa 0,0 l/m 3,2 km/h (1 Bft) S-SO 157 0 min 0,000 mm 0,0 UV-I 0 W/m 4,9 C 7,3 C 6,4 km/h (2 Bft) 100,00 %
22.12.2015 18:00 7,3 C 86 % 1028,6 hPa 0,0 l/m 1,6 km/h (1 Bft) S-SO 157 0 min 0,000 mm 0,0 UV-I 0 W/m 5,1 C 7,3 C 6,4 km/h (2 Bft) 100,00 %
22.12.2015 18:05 7,2 C 86 % 1028,6 hPa 0,0 l/m 1,6 km/h (1 Bft) S-SO 157 0 min 0,000 mm 0,0 UV-I 0 W/m 5,0 C 7,2 C 4,8 km/h (1 Bft) 100,00 %
22.12.2015 18:10 6,8 C 87 % 1028,6 hPa 0,0 l/m 1,6 km/h (1 Bft) S-SO 157 0 min 0,000 mm 0,0 UV-I 0 W/m 4,8 C 6,8 C 6,4 km/h (2 Bft) 100,00 %
22.12.2015 18:15 7,0 C 87 % 1028,6 hPa 0,0 l/m 0,0 km/h (0 Bft) S-SO 157 0 min 0,000 mm 0,0 UV-I 0 W/m 5,0 C 7,0 C 3,2 km/h (1 Bft) 99,12 %
22.12.2015 18:20 6,8 C 86 % 1028,6 hPa 0,0 l/m 0,0 km/h (0 Bft) S-SO 157 0 min 0,000 mm 0,0 UV-I 0 W/m 4,6 C 6,8 C 3,2 km/h (1 Bft) 100,00 %
22.12.2015 18:25 6,8 C 87 % 1028,5 hPa 0,0 l/m 0,0 km/h (0 Bft) S-SW 202 0 min 0,000 mm 0,0 UV-I 0 W/m 4,8 C 6,8 C 1,6 km/h (1 Bft) 100,00 %
22.12.2015 18:30 6,7 C 87 % 1028,6 hPa 0,0 l/m 1,6 km/h (1 Bft) S-SW 202 0 min 0,000 mm 0,0 UV-I 0 W/m 4,7 C 6,7 C 4,8 km/h (1 Bft) 100,00 %
22.12.2015 18:35 6,9 C 87 % 1028,4 hPa 0,0 l/m 3,2 km/h (1 Bft) N 360 0 min 0,000 mm 0,0 UV-I 0 W/m 4,9 C 6,9 C 4,8 km/h (1 Bft) 99,12 %
22.12.2015 18:40 6,8 C 87 % 1028,5 hPa 0,0 l/m 1,6 km/h (1 Bft) NO 45 0 min 0,000 mm 0,0 UV-I 0 W/m 4,8 C 6,8 C 3,2 km/h (1 Bft) 100,00 %
22.12.2015 18:45 6,4 C 88 % 1028,4 hPa 0,0 l/m 0,0 km/h (0 Bft) NO 45 0 min 0,000 mm 0,0 UV-I 0 W/m 4,6 C 6,4 C 1,6 km/h (1 Bft) 100,00 %
22.12.2015 18:50 6,2 C 89 % 1028,4 hPa 0,0 l/m 1,6 km/h (1 Bft) NO 45 0 min 0,000 mm 0,0 UV-I 0 W/m 4,5 C 6,2 C 3,2 km/h (1 Bft) 100,00 %
22.12.2015 18:55 6,3 C 88 % 1028,4 hPa 0,0 l/m 1,6 km/h (1 Bft) SO 135 0 min 0,000 mm 0,0 UV-I 0 W/m 4,5 C 6,3 C 3,2 km/h (1 Bft) 100,00 %
22.12.2015 19:00 6,1 C 89 % 1028,5 hPa 0,0 l/m 3,2 km/h (1 Bft) SO 135 0 min 0,000 mm 0,0 UV-I 0 W/m 4,4 C 6,1 C 8,0 km/h (2 Bft) 100,00 %
22.12.2015 19:05 6,3 C 88 % 1028,4 hPa 0,0 l/m 4,8 km/h (1 Bft) S 180 0 min 0,000 mm 0,0 UV-I 0 W/m 4,5 C 6,3 C 8,0 km/h (2 Bft) 99,12 %
22.12.2015 19:10 6,4 C 87 % 1028,5 hPa 0,0 l/m 3,2 km/h (1 Bft) S-SO 157 0 min 0,000 mm 0,0 UV-I 0 W/m 4,4 C 6,4 C 6,4 km/h (2 Bft) 100,00 %
22.12.2015 19:15 6,5 C 86 % 1028,6 hPa 0,0 l/m 3,2 km/h (1 Bft) S-SW 202 0 min 0,000 mm 0,0 UV-I 0 W/m 4,3 C 6,5 C 8,0 km/h (2 Bft) 100,00 %
22.12.2015 19:20 6,1 C 87 % 1028,6 hPa 0,0 l/m 3,2 km/h (1 Bft) S-SW 202 0 min 0,000 mm 0,0 UV-I 0 W/m 4,1 C 6,1 C 4,8 km/h (1 Bft) 98,25 %
22.12.2015 19:25 5,7 C 89 % 1028,6 hPa 0,0 l/m 4,8 km/h (1 Bft) S-SW 202 0 min 0,000 mm 0,0 UV-I 0 W/m 4,0 C 5,7 C 6,4 km/h (2 Bft) 96,49 %
22.12.2015 19:30 6,1 C 87 % 1028,5 hPa 0,0 l/m 4,8 km/h (1 Bft) S-SW 202 0 min 0,000 mm 0,0 UV-I 0 W/m 4,1 C 6,1 C 6,4 km/h (2 Bft) 97,37 %
22.12.2015 19:35 6,3 C 85 % 1028,6 hPa 0,0 l/m 4,8 km/h (1 Bft) S-SW 202 0 min 0,000 mm 0,0 UV-I 0 W/m 4,0 C 6,3 C 6,4 km/h (2 Bft) 98,25 %
22.12.2015 19:40 6,5 C 84 % 1028,5 hPa 0,0 l/m 4,8 km/h (1 Bft) SW 225 0 min 0,000 mm 0,0 UV-I 0 W/m 4,0 C 6,5 C 6,4 km/h (2 Bft) 98,25 %
22.12.2015 19:45 6,8 C 81 % 1028,5 hPa 0,0 l/m 4,8 km/h (1 Bft) S-SW 202 0 min 0,000 mm 0,0 UV-I 0 W/m 3,8 C 6,8 C 6,4 km/h (2 Bft) 97,37 %
22.12.2015 19:50 6,8 C 81 % 1028,5 hPa 0,0 l/m 3,2 km/h (1 Bft) S-SW 202 0 min 0,000 mm 0,0 UV-I 0 W/m 3,8 C 6,8 C 4,8 km/h (1 Bft) 96,49 %
22.12.2015 19:55 6,6 C 81 % 1028,5 hPa 0,0 l/m 3,2 km/h (1 Bft) S-SW 202 0 min 0,000 mm 0,0 UV-I 0 W/m 3,6 C 6,6 C 4,8 km/h (1 Bft) 97,37 %
22.12.2015 20:00 6,5 C 82 % 1028,6 hPa 0,0 l/m 0,0 km/h (0 Bft) S-SW 202 0 min 0,000 mm 0,0 UV-I 0 W/m 3,7 C 6,5 C 1,6 km/h (1 Bft) 98,25 %
22.12.2015 20:05 6,2 C 83 % 1028,6 hPa 0,0 l/m 0,0 km/h (0 Bft) N 0 0 min 0,000 mm 0,0 UV-I 0 W/m 3,5 C 6,2 C 0,0 km/h (0 Bft) 100,00 %
22.12.2015 20:10 6,1 C 84 % 1028,6 hPa 0,0 l/m 0,0 km/h (0 Bft) S-SW 202 0 min 0,000 mm 0,0 UV-I 0 W/m 3,6 C 6,1 C 1,6 km/h (1 Bft) 100,00 %
22.12.2015 20:15 5,8 C 84 % 1028,6 hPa 0,0 l/m 0,0 km/h (0 Bft) S-SW 202 0 min 0,000 mm 0,0 UV-I 0 W/m 3,3 C 5,8 C 1,6 km/h (1 Bft) 99,12 %
22.12.2015 20:20 5,4 C 86 % 1028,6 hPa 0,0 l/m 3,2 km/h (1 Bft) S-SW 202 0 min 0,000 mm 0,0 UV-I 0 W/m 3,3 C 5,4 C 4,8 km/h (1 Bft) 100,00 %
22.12.2015 20:25 5,4 C 86 % 1028,6 hPa 0,0 l/m 4,8 km/h (1 Bft) S 180 0 min 0,000 mm 0,0 UV-I 0 W/m 3,3 C 5,4 C 8,0 km/h (2 Bft) 100,00 %
22.12.2015 20:30 5,4 C 86 % 1028,5 hPa 0,0 l/m 6,4 km/h (2 Bft) S-SW 202 0 min 0,000 mm 0,0 UV-I 0 W/m 3,3 C 5,4 C 8,0 km/h (2 Bft) 100,00 %
22.12.2015 20:35 5,7 C 85 % 1028,5 hPa 0,0 l/m 6,4 km/h (2 Bft) S-SW 202 0 min 0,000 mm 0,0 UV-I 0 W/m 3,4 C 5,7 C 9,7 km/h (2 Bft) 99,12 %
22.12.2015 20:40 5,7 C 84 % 1028,5 hPa 0,0 l/m 4,8 km/h (1 Bft) S-SW 202 0 min 0,000 mm 0,0 UV-I 0 W/m 3,2 C 5,7 C 8,0 km/h (2 Bft) 100,00 %
22.12.2015 20:45 5,8 C 84 % 1028,5 hPa 0,0 l/m 4,8 km/h (1 Bft) S-SW 202 0 min 0,000 mm 0,0 UV-I 0 W/m 3,3 C 5,8 C 6,4 km/h (2 Bft) 100,00 %
22.12.2015 20:50 5,9 C 83 % 1028,5 hPa 0,0 l/m 5,2 km/h (1 Bft) S 189 0 min 0,000 mm 0,0 UV-I 0 W/m 3,2 C 5,9 C 8,0 km/h (2 Bft) 96,81 %
22.12.2015 20:55 6,0 C 82 % 1028,5 hPa 0,0 l/m 6,2 km/h (2 Bft) S 175 0 min 0,000 mm 0,0 UV-I 0 W/m 3,2 C 6,0 C 8,0 km/h (2 Bft) 99,17 %
22.12.2015 21:00 6,2 C 81 % 1028,5 hPa 0,0 l/m 5,6 km/h (1 Bft) S 184 0 min 0,000 mm 0,0 UV-I 0 W/m 3,2 C 6,2 C 8,0 km/h (2 Bft) 99,17 %
22.12.2015 21:05 6,3 C 80 % 1028,4 hPa 0,0 l/m 3,6 km/h (1 Bft) S 183 0 min 0,000 mm 0,0 UV-I 0 W/m 3,1 C 6,3 C 4,8 km/h (1 Bft) 95,73 %
22.12.2015 21:10 6,1 C 80 % 1028,3 hPa 0,0 l/m 3,5 km/h (1 Bft) S 175 0 min 0,000 mm 0,0 UV-I 0 W/m 2,9 C 6,1 C 6,4 km/h (2 Bft) 97,39 %
22.12.2015 21:15 5,9 C 81 % 1028,3 hPa 0,0 l/m 3,0 km/h (1 Bft) S 175 0 min 0,000 mm 0,0 UV-I 0 W/m 2,9 C 5,9 C 8,0 km/h (2 Bft) 97,44 %
22.12.2015 21:20 5,9 C 81 % 1028,3 hPa 0,0 l/m 3,3 km/h (1 Bft) S 173 0 min 0,000 mm 0,0 UV-I 0 W/m 2,9 C 5,9 C 8,0 km/h (2 Bft) 96,33 %
22.12.2015 21:25 6,0 C 80 % 1028,3 hPa 0,0 l/m 2,1 km/h (1 Bft) S 178 0 min 0,000 mm 0,0 UV-I 0 W/m 2,8 C 6,0 C 3,2 km/h (1 Bft) 97,52 %
22.12.2015 21:30 5,8 C 81 % 1028,3 hPa 0,0 l/m 1,9 km/h (1 Bft) S 178 0 min 0,000 mm 0,0 UV-I 0 W/m 2,8 C 5,8 C 3,2 km/h (1 Bft) 96,67 %
22.12.2015 21:35 5,6 C 82 % 1028,3 hPa 0,0 l/m 0,4 km/h (0 Bft) S 178 0 min 0,000 mm 0,0 UV-I 0 W/m 2,8 C 5,6 C 1,6 km/h (1 Bft) 96,69 %
22.12.2015 21:40 5,3 C 83 % 1028,4 hPa 0,0 l/m 0,4 km/h (0 Bft) S 178 0 min 0,000 mm 0,0 UV-I 0 W/m 2,7 C 5,3 C 1,6 km/h (1 Bft) 100,00 %
22.12.2015 21:45 5,1 C 84 % 1028,3 hPa 0,0 l/m 2,4 km/h (1 Bft) S-SO 160 0 min 0,000 mm 0,0 UV-I 0 W/m 2,6 C 5,1 C 6,4 km/h (2 Bft) 99,15 %
22.12.2015 21:50 4,8 C 85 % 1028,3 hPa 0,0 l/m 3,0 km/h (1 Bft) S-SO 154 0 min 0,000 mm 0,0 UV-I 0 W/m 2,5 C 4,8 C 6,4 km/h (2 Bft) 99,15 %
22.12.2015 21:55 4,4 C 87 % 1028,3 hPa 0,0 l/m 2,7 km/h (1 Bft) S-SO 150 0 min 0,000 mm 0,0 UV-I 0 W/m 2,4 C 4,4 C 4,8 km/h (1 Bft) 100,00 %
22.12.2015 22:00 4,0 C 87 % 1028,3 hPa 0,0 l/m 4,8 km/h (1 Bft) O-SO 115 0 min 0,000 mm 0,0 UV-I 0 W/m 2,0 C 4,0 C 6,4 km/h (2 Bft) 98,31 %
22.12.2015 22:05 3,6 C 89 % 1028,2 hPa 0,0 l/m 5,9 km/h (2 Bft) O-SO 123 0 min 0,000 mm 0,0 UV-I 0 W/m 2,0 C 3,6 C 9,7 km/h (2 Bft) 99,11 %
22.12.2015 22:10 3,8 C 89 % 1028,2 hPa 0,0 l/m 4,1 km/h (1 Bft) SO 132 0 min 0,000 mm 0,0 UV-I 0 W/m 2,2 C 3,8 C 4,8 km/h (1 Bft) 99,12 %
22.12.2015 22:15 4,0 C 89 % 1028,1 hPa 0,0 l/m 3,1 km/h (1 Bft) SO 134 0 min 0,000 mm 0,0 UV-I 0 W/m 2,4 C 4,0 C 6,4 km/h (2 Bft) 99,19 %
22.12.2015 22:20 3,8 C 89 % 1028,1 hPa 0,0 l/m 3,0 km/h (1 Bft) SO 134 0 min 0,000 mm 0,0 UV-I 0 W/m 2,2 C 3,8 C 4,8 km/h (1 Bft) 99,15 %
22.12.2015 22:25 3,7 C 89 % 1028,1 hPa 0,0 l/m 4,0 km/h (1 Bft) SO 144 0 min 0,000 mm 0,0 UV-I 0 W/m 2,1 C 3,7 C 6,4 km/h (2 Bft) 100,00 %
22.12.2015 22:30 3,9 C 88 % 1028,0 hPa 0,0 l/m 3,9 km/h (1 Bft) SO 141 0 min 0,000 mm 0,0 UV-I 0 W/m 2,1 C 3,9 C 6,4 km/h (2 Bft) 100,00 %
22.12.2015 22:35 3,9 C 88 % 1027,9 hPa 0,0 l/m 1,2 km/h (1 Bft) SO 141 0 min 0,000 mm 0,0 UV-I 0 W/m 2,1 C 3,9 C 3,2 km/h (1 Bft) 99,15 %
22.12.2015 22:40 3,7 C 88 % 1027,9 hPa 0,0 l/m 1,3 km/h (1 Bft) SO 141 0 min 0,000 mm 0,0 UV-I 0 W/m 1,9 C 3,7 C 3,2 km/h (1 Bft) 99,17 %
22.12.2015 22:45 3,2 C 90 % 1027,9 hPa 0,0 l/m 2,6 km/h (1 Bft) S-SO 165 0 min 0,000 mm 0,0 UV-I 0 W/m 1,7 C 3,2 C 6,4 km/h (2 Bft) 100,00 %
22.12.2015 22:50 3,0 C 92 % 1027,8 hPa 0,0 l/m 1,4 km/h (1 Bft) S-SO 165 0 min 0,000 mm 0,0 UV-I 0 W/m 1,8 C 3,0 C 3,2 km/h (1 Bft) 100,00 %
22.12.2015 22:55 3,0 C 91 % 1027,8 hPa 0,0 l/m 0,3 km/h (0 Bft) S-SO 165 0 min 0,000 mm 0,0 UV-I 0 W/m 1,7 C 3,0 C 3,2 km/h (1 Bft) 100,00 %
22.12.2015 23:00 2,7 C 91 % 1027,8 hPa 0,0 l/m 1,0 km/h (0 Bft) S-SO 165 0 min 0,000 mm 0,0 UV-I 0 W/m 1,4 C 2,7 C 3,2 km/h (1 Bft) 99,12 %
22.12.2015 23:05 2,8 C 92 % 1027,8 hPa 0,0 l/m 1,0 km/h (0 Bft) S-SO 165 0 min 0,000 mm 0,0 UV-I 0 W/m 1,6 C 2,8 C 3,2 km/h (1 Bft) 100,00 %
22.12.2015 23:10 3,1 C 91 % 1027,7 hPa 0,0 l/m 2,2 km/h (1 Bft) S-SO 165 0 min 0,000 mm 0,0 UV-I 0 W/m 1,8 C 3,1 C 3,2 km/h (1 Bft) 98,35 %
22.12.2015 23:15 3,1 C 91 % 1027,8 hPa 0,0 l/m 3,7 km/h (1 Bft) S-SW 194 0 min 0,000 mm 0,0 UV-I 0 W/m 1,8 C 3,1 C 6,4 km/h (2 Bft) 100,00 %
22.12.2015 23:20 2,8 C 92 % 1027,7 hPa 0,0 l/m 3,8 km/h (1 Bft) S-SW 196 0 min 0,000 mm 0,0 UV-I 0 W/m 1,6 C 2,8 C 4,8 km/h (1 Bft) 96,52 %
22.12.2015 23:25 2,7 C 93 % 1027,7 hPa 0,0 l/m 2,4 km/h (1 Bft) S-SW 197 0 min 0,000 mm 0,0 UV-I 0 W/m 1,7 C 2,7 C 4,8 km/h (1 Bft) 96,61 %
22.12.2015 23:30 2,8 C 93 % 1027,8 hPa 0,0 l/m 3,5 km/h (1 Bft) O-SO 122 0 min 0,000 mm 0,0 UV-I 0 W/m 1,8 C 2,8 C 6,4 km/h (2 Bft) 97,37 %
22.12.2015 23:35 3,8 C 91 % 1027,8 hPa 0,0 l/m 2,6 km/h (1 Bft) O-SO 117 0 min 0,000 mm 0,0 UV-I 0 W/m 2,5 C 3,8 C 4,8 km/h (1 Bft) 97,46 %
22.12.2015 23:40 3,7 C 89 % 1027,8 hPa 0,0 l/m 0,1 km/h (0 Bft) O-SO 117 0 min 0,000 mm 0,0 UV-I 0 W/m 2,1 C 3,7 C 1,6 km/h (1 Bft) 95,00 %
22.12.2015 23:45 3,5 C 89 % 1027,8 hPa 0,0 l/m 0,0 km/h (0 Bft) O-SO 117 0 min 0,000 mm 0,0 UV-I 0 W/m 1,9 C 3,5 C 0,0 km/h (0 Bft) 97,17 %
22.12.2015 23:50 3,2 C 90 % 1027,8 hPa 0,0 l/m 0,0 km/h (0 Bft) O-SO 117 0 min 0,000 mm 0,0 UV-I 0 W/m 1,7 C 3,2 C 0,0 km/h (0 Bft) 96,92 %
22.12.2015 23:55 3,1 C 91 % 1027,8 hPa 0,0 l/m 1,2 km/h (1 Bft) O-SO 117 0 min 0,000 mm 0,0 UV-I 0 W/m 1,8 C 3,1 C 3,2 km/h (1 Bft) 97,22 %
_ Min-Zeit 23:00 13:25 23:10 - 15:35 - - - - - - 23:00 00:50 15:35 16:30
Minimum _ 2,7 C 58 % 1027,7 hPa - 0,0 km/h (0 Bft) - - - - - - 1,4 C 1,4 C 0,0 km/h (0 Bft) 94,02 %
_ Max-Zeit 13:35 23:25 10:10 00:00 10:05 - - 08:50 12:00 11:40 11:45 11:35 14:25 10:05 00:00
Maximum _ 14,2 C 93 % 1031,7 hPa 0,0 l/m 15,8 km/h
W-SW (3 Bft)
- - 5 min 0,178 mm 0,8 UV-I 354 W/m 7,3 C 14,1 C 25,7 km/h
SW (4 Bft)
100,00 %
Durchschnitt _ 8,4 C 80 % 1029,9 hPa #0,0 l/m 6,9 km/h (2 Bft) SW - #5:15 h #1,041 mm 0,6 UV-I 154 W/m 5,0 C 7,0 C 11,7 km/h (2 Bft) 98,61 %